Flag for USA

Past Weather in McKinney, Texas, USA — Yesterday and Last 2 Weeks

Now
67 °F

Clear.


Feels Like: 67 °F
Forecast: 82 / 61 °F
Wind: 5 mph from Northeast

Location: McKinney Municipal Airport
Current Time: Sep 19, 2020 at 2:10:25 am
Latest Report: Sep 19, 2020 at 12:53 am
Visibility: 9 mi
Pressure30.13 "Hg
Humidity: 81%
Dew Point: 61 °F
Location of McKinneyLocation

Past Weather in McKinney — Graph

°F

McKinney Temperature Yesterday

Maximum temperature yesterday: 84 °F (at 1:53 pm)
Minimum temperature yesterday: 64 °F (at 3:53 am)
Average temperature yesterday: 73 °F

High & Low Weather Summary for the Past Weeks

 TemperatureHumidityPressure
High93 °F (Sep 7, 2:53 pm)97% (Sep 6, 1:53 am)30.27 "Hg (Sep 6, 1:53 am)
Low58 °F (Sep 10, 5:16 am)47% (Sep 7, 2:53 pm)29.75 "Hg (Sep 7, 6:53 pm)
Average76 °F76%30.05 "Hg
* Reported Sep 4 12:53 am — Sep 19 12:53 am, McKinney. Weather by CustomWeather, © 2020

Note: Actual official high and low records may vary slightly from our data, if they occured in-between our weather recording intervals... More about our weather records

McKinney Weather History for the Previous 24 Hours

Scroll right to see more
 ConditionsComfort  
Time TempWeatherWind HumidityBarometerVisibility
12:53 am
Sat, Sep 19
67 °FClear.5 mph81%30.13 "Hg9 mi
11:53 pm
Fri, Sep 18
68 °FClear.6 mph82%30.14 "Hg8 mi
10:53 pm71 °FClear.7 mph73%30.13 "Hg9 mi
9:53 pm73 °FClear.9 mph71%30.12 "Hg10 mi
8:53 pm72 °FClear.6 mph73%30.11 "Hg10 mi
7:53 pm75 °FClear.5 mph64%30.09 "Hg10 mi
6:53 pm79 °FSunny.7 mph56%30.07 "Hg10 mi
5:53 pm82 °FSunny.12 mph49%30.06 "Hg10 mi
4:53 pm83 °FScattered clouds.6 mph51%30.06 "Hg10 mi
3:53 pm83 °FScattered clouds.10 mph50%30.07 "Hg10 mi
2:53 pm82 °FPartly sunny.12 mph56%30.08 "Hg10 mi
1:53 pm84 °FPassing clouds.10 mph57%30.10 "Hg10 mi
12:53 pm81 °FScattered clouds.8 mph62%30.12 "Hg10 mi
11:53 am79 °FSunny.8 mph67%30.13 "Hg10 mi
10:53 am76 °FSunny.5 mph72%30.14 "Hg10 mi
9:53 am74 °FSunny.10 mph76%30.13 "Hg10 mi
8:53 am71 °FPassing clouds.6 mph81%30.12 "Hg10 mi
7:53 am68 °FPartly sunny.6 mph87%30.11 "Hg10 mi
6:53 am66 °FClear.6 mph90%30.08 "Hg10 mi
5:53 am64 °FClear.5 mph94%30.06 "Hg10 mi
4:53 am65 °FClear.3 mph91%30.05 "Hg10 mi
3:53 am64 °FClear.6 mph90%30.04 "Hg10 mi
2:53 am65 °FClear.5 mph91%30.05 "Hg10 mi
Weather by CustomWeather, © 2020

See weather overview